Weather observations for the past three days for
Port Hope
Imperial (Metric)
Date Time (edt) Wind (mph) Vis. (mi.) Weather Sky Cond. Temperature (ºF) Relative Humidity Wind Chill (°F) Heat Index (°F) Pressure Precipitation (in)
Air Dwpt 6 hour altimeter (in) sea level (mb) 1 hr 3 hr 6 hr
Max. Min.
21 16:55 NE 12 0.00 NULL NULL 73 62.1 69% 30.11 1019.1
21 15:55 NE 10 0.00 NULL NULL 73 64 74% 30.12 1019.2
21 14:55 NE 10 0.00 NULL NULL 73 64.9 76% 30.12 1019.2
21 13:55 N 7 0.00 NULL NULL 73 66.9 73.9 71.1 81% 30.12 1019.1
21 12:55 NE 8 0.00 NULL NULL 73 66.9 81% 30.11 1019.0
21 11:55 NE 8 0.00 NULL NULL 73 66.9 81% 30.11 1018.8
21 10:55 NE 7 0.00 NULL NULL 73 66 79% 30.11 1018.7
21 09:55 N 8 0.00 NULL NULL 73 66 79% 30.1 1018.5
21 08:55 Calm 0.00 NULL NULL 73 66.9 81% 30.1 1018.3
21 07:55 Vrbl 3 0.00 NULL NULL 71.1 64.9 72 64.9 81% 30.09 1018.1
21 06:55 Vrbl 5 0.00 NULL NULL 71.1 64 79% 30.08 1017.6
21 05:55 W 5 0.00 NULL NULL 64.9 62.1 90% 30.06 1017.3
21 04:55 W 3 0.00 NULL NULL 64.9 63 93% 30.05 1016.7
21 03:55 W 3 0.00 NULL NULL 68 64 87% 30.04 1016.5
21 02:55 NW 5 0.00 NULL NULL 72 66 82% 30.05 1016.5
21 01:55 W 7 0.00 NULL NULL 69.1 61 79 69.1 76% 30.04 1016.3
21 00:55 SW 6 0.00 NULL NULL 70 61 73% 30.04 1016.5
20 23:55 SW 5 0.00 NULL NULL 71.1 61 71% 30.04 1016.5
20 22:55 SW 5 0.00 NULL NULL 72 61 68% 30.05 1016.7
20 21:55 Calm 0.00 NULL NULL 73 62.1 69% 30.04 1016.5
20 20:55 Calm 0.00 NULL NULL 75 63 66% 77 30.03 1016.3
20 19:55 Calm 0.00 NULL NULL 79 62.1 84 78.1 56% 80 30.03 1016.0
20 18:55 Calm 0.00 NULL NULL 80.1 61 52% 81 30.03 1016.2
20 17:55 E 6 0.00 NULL NULL 79 63 58% 81 30.04 1016.4
20 16:55 Vrbl 6 0.00 NULL NULL 82.9 59 44% 83 30.04 1016.6
20 15:55 Calm 0.00 NULL NULL 82 64.9 56% 84 30.04 1016.7
20 14:55 Calm 0.00 NULL NULL 82.9 57.9 43% 83 30.05 1016.9
20 13:55 W 8 0.00 NULL NULL 82 59 82 68 46% 82 30.07 1017.4
20 12:55 SW 10 0.00 NULL NULL 79 59 50% 80 30.07 1017.6
20 11:55 SW 7 0.00 NULL NULL 77 57.9 52% 79 30.08 1017.9
20 10:55 W 5 0.00 NULL NULL 75 59 58% 77 30.08 1018.0
20 09:55 W 5 0.00 NULL NULL 75 55.9 52% 78 30.08 1018.0
20 08:55 Vrbl 6 0.00 NULL NULL 71.1 59 66% 30.09 1018.2
20 07:55 W 3 0.00 NULL NULL 68 57.9 68 61 70% 30.09 1018.1
20 06:55 SW 3 0.00 NULL NULL 63 57 81% 30.08 1018.1
20 05:55 SW 6 0.00 NULL NULL 62.1 55.9 80% 30.08 1018.0
20 04:55 SW 6 0.00 NULL NULL 63 55 76% 30.07 1017.6
20 03:55 SW 6 0.00 NULL NULL 63 54 73% 30.07 1017.6
20 02:55 SW 6 0.00 NULL NULL 64 54 70% 30.08 1018.0
20 01:55 SW 6 0.00 NULL NULL 66 54 75 66 65% 30.08 1018.1
20 00:55 SW 6 0.00 NULL NULL 66.9 54 63% 30.09 1018.4
19 23:55 SW 6 0.00 NULL NULL 66.9 54 63% 30.1 1018.7
19 22:55 SW 5 0.00 NULL NULL 66.9 55 66% 30.1 1018.4
19 21:55 Calm 0.00 NULL NULL 68 55 63% 30.09 1018.2
19 20:55 Calm 0.00 NULL NULL 71.1 55.9 59% 30.08 1018.0
19 19:55 Vrbl 3 0.00 NULL NULL 75 57 78.1 72 54% 78 30.09 1018.3
19 18:55 SE 7 0.00 NULL NULL 73.9 60.1 62% 30.1 1018.9
19 17:55 E 10 0.00 NULL NULL 73 60.1 64% 30.11 1019.3
19 16:55 NE 5 0.00 NULL NULL 75 55.9 52% 78 30.13 1019.6
19 15:55 Calm 0.00 NULL NULL 77 53.1 43% 78 30.13 1019.9
19 14:55 Vrbl 6 0.00 NULL NULL 75.9 55.9 50% 78 30.15 1020.3
19 13:55 NW 8 0.00 NULL NULL 73.9 60.1 77 63 62% 30.16 1020.9
19 12:55 NW 3 0.00 NULL NULL 75.9 55 48% 78 30.16 1021.0
19 11:55 Calm 0.00 NULL NULL 73 55.9 55% 30.17 1021.1
19 10:55 W 8 0.00 NULL NULL 73.9 57 56% 30.17 1021.1
19 09:55 Vrbl 7 0.00 NULL NULL 70 60.1 71% 30.18 1021.4
19 08:55 SW 6 0.00 NULL NULL 66 55 68% 30.18 1021.4
19 07:55 SW 3 0.00 NULL NULL 63 53.1 63 55.9 70% 30.17 1021.2
19 06:55 SW 3 0.00 NULL NULL 57.9 51.1 78% 30.16 1020.9
19 05:55 SW 7 0.00 NULL NULL 57.9 51.1 78% 30.15 1020.8
19 04:55 SW 7 0.00 NULL NULL 57.9 51.1 78% 30.15 1020.5
19 03:55 SW 7 0.00 NULL NULL 57.9 51.1 78% 30.15 1020.7
19 02:55 SW 7 0.00 NULL NULL 59 51.1 75% 30.15 1020.6
19 01:55 SW 5 0.00 NULL NULL 55.9 52 69.1 55.9 87% 30.15 1020.7
19 00:55 SW 3 0.00 NULL NULL 55.9 52 87% 30.14 1020.3
18 23:55 SW 3 0.00 NULL NULL 55.9 53.1 90% 30.14 1020.3
18 22:55 Calm 0.00 NULL NULL 57.9 54 87% 30.14 1020.3
18 21:55 Calm 0.00 NULL NULL 60.1 52 75% 30.14 1020.2
18 20:55 Calm 0.00 NULL NULL 63 52 68% 30.14 1020.3
18 19:55 N 3 0.00 NULL NULL 69.1 48.9 71.1 69.1 49% 30.14 1020.1
18 18:55 N 3 0.00 NULL NULL 70 51.1 51% 30.14 1020.0
18 17:55 Calm 0.00 NULL NULL 70 53.1 55% 30.14 1020.1
Date Time (edt) Wind (mph) Vis. (mi.) Weather Sky Cond. Air Dwpt Max. Min. Relative Humidity Wind Chill (°F) Heat Index (°F) altimeter (in) sea level (mb) 1 hr 3 hr 6 hr
6 hour
Temperature (ºF) Pressure Precipitation (in)